User: anonymous
Location: Bandys
(35.4750°N, 81.0830°W)
Time: 10:36:31
(UTC-04:00)
Language:

DELTA 2 R/B (1) - Orbit

View from above orbital plane
View from above orbital plane
View from above satellite
View from above satellite

Ground track
Ground track

The orbit data is extracted from the following two-line orbital elements,

1 27665U 03005C   14204.27271177 -.00000117  00000-0 -12695-4 0   729
2 27665 039.5759 106.4310 0010346 221.3758 289.7815 14.28204629599341
Epoch (UTC): 23 July 2014 06:32:42
Eccentricity: 0.0010346
inclination: 39.5759°
perigee height: 790 km
apogee height: 805 km
right ascension of ascending node: 106.4310°
argument of perigee: 221.3758°
revolutions per day: 14.28204629
mean anomaly at epoch: 289.7815°
orbit number at epoch: 59934

The dashed part of the orbit path shows where the satellite is in the earth's shadow,  

DLR